User: anonymous   Login
Location: Homewood
(41.1836°S, 175.9581°E)
Time: 14:41:41
(UTC+00:00)
Language:

Cosmos 1908 - Orbit

View from above orbital plane
View from above orbital plane
View from above satellite
View from above satellite

Ground track
Ground track

The orbit data is extracted from the following two-line orbital elements,

1 18748U 88001A   24169.35783891  .00015462  00000-0  51903-3 0  9990
2 18748  82.4653  42.2549 0010877  27.9857 332.1966 15.30688796993188
Epoch (UTC): 17 June 2024 08:35:17
Eccentricity: 0.0010877
inclination: 82.4653°
perigee height: 466 km
apogee height: 481 km
right ascension of ascending node: 42.2549°
argument of perigee: 27.9857°
revolutions per day: 15.30688796
mean anomaly at epoch: 332.1966°
orbit number at epoch: 99318

The dashed part of the orbit path shows where the satellite is in the earth's shadow,  

DLR